Simultaneous Nadir Overpasses (SNOs) Predictions

Prediction of SNOs between NOAA-19 and TERRA Satellite Orbit:

Table of predicted SNOs for the next 14.0 days since TLE Epoch: 7/10/2021
Index Date (NOAA-19) Time (NOAA-19) Lat,Lon (NOAA-19) SZA (NOAA-19 ) Date (TERRA) Time (TERRA) Lat,Lon (TERRA) SZA (TERRA ) Distance(km) Time Diff (sec)
1 07/10/2021 07:21:20 80.33, 103.21 59.69 07/10/2021 07:21:43 80.32, 103.29 59.70 1.96 23
2 07/10/2021 08:12:20 -80.29, -89.02 120.28 07/10/2021 08:11:10 -80.31, -89.10 120.31 2.48 70
3 07/12/2021 12:54:30 -80.32,-159.91 120.01 07/12/2021 12:55:24 -80.34,-159.88 119.96 2.62 54
4 07/12/2021 13:45:28 80.32, 7.39 60.00 07/12/2021 13:44:51 80.31, 7.47 59.99 1.73 37
5 07/14/2021 19:18:39 -80.32, 104.11 119.67 07/14/2021 19:18:33 -80.31, 103.99 119.70 2.71 6
6 07/17/2021 00:51:45 80.33,-159.25 60.69 07/17/2021 00:52:13 80.33,-159.20 60.71 0.84 28
7 07/17/2021 01:42:48 -80.33, 8.09 119.30 07/17/2021 01:41:41 -80.30, 8.15 119.34 2.85 67
8 07/19/2021 06:24:57 -80.34, -62.55 118.92 07/19/2021 06:25:55 -80.33, -62.69 118.92 2.82 58
9 07/19/2021 07:15:53 80.33, 104.88 61.10 07/19/2021 07:15:21 80.32, 104.92 61.09 0.93 32
10 07/21/2021 12:49:05 -80.33,-158.30 118.48 07/21/2021 12:49:02 -80.35,-158.27 118.46 2.65 3
11 07/23/2021 18:22:10 80.35, -61.86 61.97 07/23/2021 18:22:43 80.33, -61.88 61.96 1.98 33



Historial Predications of SNOs between NOAA-19 and TERRA
